Wind_Speed
24 24 23 23 24 24 23 20 19 20 20 21 20 16 15 16 17 20 21 22 21 17 13 11 10 10 10 10 11 12 14 16 18 19 20 21 22 23 24 26 27 28
22 22 22 23 23 22 20 18 18 19 20 21 18 15 15 15 18 21 22 22 18 14 12 11 11 10 10 11 12 14 15 17 18 20 21 22 23 24 25 26 27 28
21 20 19 20 21 19 18 18 19 19 19 19 17 15 15 16 19 21 21 18 15 12 11 11 10 10 11 12 14 15 16 18 19 20 22 23 24 25 25 26 27 28
18 17 16 18 19 18 17 17 18 17 18 18 16 15 16 19 20 19 16 14 12 11 11 10 10 11 12 13 14 16 17 19 20 21 22 23 24 25 25 26 27 28
16 15 16 17 17 18 17 16 17 17 17 17 16 16 19 20 18 15 13 12 11 11 11 10 11 12 13 14 15 17 19 20 21 22 23 24 24 25 25 26 27 28
15 15 17 17 16 16 15 15 15 15 15 15 17 19 19 17 14 12 12 12 11 11 10 11 12 13 15 16 17 18 20 21 22 23 23 23 24 25 25 26 27 28
15 15 16 16 15 15 16 15 14 16 17 18 19 18 17 14 13 12 12 12 11 11 12 13 14 15 16 17 18 20 21 22 22 22 23 23 24 25 25 26 27 29
13 13 12 13 14 15 15 15 15 17 18 18 17 16 14 13 13 12 12 13 13 14 15 16 16 17 18 19 20 21 22 22 22 22 23 24 24 25 25 26 28 30
11 11 10 11 13 13 13 14 15 17 16 16 15 14 14 13 13 13 14 15 15 16 17 17 18 18 19 20 21 22 22 22 22 22 23 24 24 24 25 27 29 30
12 13 12 12 13 13 13 13 15 15 15 15 15 14 14 15 15 16 16 17 18 18 19 19 19 20 21 21 21 22 22 22 22 23 24 24 24 25 26 27 29 30
13 14 14 13 13 13 13 12 13 14 15 15 15 15 16 16 17 18 18 19 19 20 20 20 20 21 21 22 22 22 22 22 22 24 24 24 24 25 26 28 29 30
13 14 14 13 12 11 11 11 13 15 16 16 16 16 17 18 19 20 20 20 21 20 20 20 21 22 22 22 23 23 22 22 23 24 25 24 25 26 27 28 29 30
13 14 13 12 11 11 10 11 13 15 16 16 17 18 19 20 21 21 22 21 21 21 21 21 22 22 22 23 23 23 23 23 24 25 25 25 25 26 27 28 29 30
12 14 14 13 12 11 11 11 12 14 15 16 18 19 20 21 22 23 23 22 21 21 22 22 22 22 23 24 24 24 24 25 26 26 26 26 26 27 28 28 29 29
11 12 14 14 14 13 12 12 12 14 15 16 18 19 20 22 22 23 23 23 23 22 23 23 23 23 24 25 25 25 26 27 27 27 27 26 27 27 28 28 29 29
13 13 13 14 14 14 13 13 13 14 15 16 17 19 20 21 22 23 24 25 25 25 25 24 24 25 26 26 27 27 28 28 28 28 27 27 27 27 27 28 28 28
15 15 14 14 15 15 15 14 14 15 15 17 18 19 20 21 22 23 25 26 27 27 27 26 27 27 27 28 28 28 29 29 29 28 27 27 27 26 27 27 27 27
18 17 16 16 16 16 16 16 16 16 17 18 18 19 20 21 22 23 25 26 27 28 28 29 29 29 30 30 30 30 30 30 29 28 27 27 26 26 26 27 27 26
19 19 18 18 18 18 18 18 18 18 18 19 20 20 21 21 22 23 24 25 26 28 29 30 31 32 32 32 32 32 32 31 30 29 27 26 26 26 26 26 26 25
21 21 21 20 20 20 20 20 20 21 21 21 21 21 22 23 23 24 25 26 27 29 30 32 33 33 34 34 34 33 33 31 30 29 27 26 26 26 26 25 25 25
22 22 22 22 22 22 22 23 23 23 23 23 23 23 24 24 25 25 26 27 29 30 32 33 33 34 35 35 35 35 34 32 31 29 27 26 25 25 25 25 25 25
23 23 23 23 24 25 24 24 24 24 24 25 25 25 26 26 26 27 28 29 30 31 32 33 34 35 36 37 37 36 34 33 32 29 27 26 25 25 25 25 25 25
25 25 25 25 26 26 25 25 24 25 25 26 26 27 27 27 27 28 29 30 31 32 34 36 36 37 39 40 38 35 33 33 31 27 26 25 25 25 25 24 25 25
29 28 28 28 28 27 26 26 26 26 27 27 28 28 29 28 29 30 31 31 32 33 36 39 39 40 43 41 35 32 32 31 28 25 25 25 25 24 24 24 25 25
32 31 31 31 30 29 28 27 28 28 28 29 29 30 30 30 30 30 30 30 30 31 34 37 38 41 42 37 31 30 30 27 25 25 25 25 25 24 24 24 25 25
30 31 31 31 31 30 29 29 29 29 30 31 31 31 31 31 30 28 28 28 29 29 32 33 33 34 34 30 28 28 27 25 25 25 25 25 24 24 24 24 25 25
Wind_Direction
247 248 249 247 246 245 244 245 243 241 241 241 238 238 244 247 249 250 250 251 248 239 230 224 227 236 246 256 265 271 276 282 288 294 298 300 301 301 303 306 309 311
249 249 247 246 246 245 245 243 240 239 238 236 237 241 244 246 251 250 247 244 238 225 219 221 229 240 251 260 267 272 280 288 293 297 298 298 300 302 305 308 310 311
251 250 245 245 247 246 245 242 237 233 232 235 241 244 244 248 251 247 240 234 224 215 217 224 235 247 257 265 271 279 287 293 295 296 296 298 301 304 307 309 309 310
252 252 245 244 248 247 244 239 233 229 229 236 242 243 245 247 245 239 231 222 214 215 223 231 244 255 263 270 278 286 291 292 293 294 296 299 303 305 307 307 309 312
250 246 239 238 244 246 239 229 228 230 233 236 239 241 243 241 236 230 223 218 217 223 231 241 253 262 270 277 284 287 288 290 292 294 297 301 303 305 306 307 311 317
247 238 236 238 240 237 225 218 230 239 238 236 235 236 237 236 234 230 224 223 227 232 241 252 261 269 275 280 284 285 286 289 292 295 299 301 303 304 305 310 316 322
246 235 235 239 238 230 222 226 239 242 238 236 235 236 237 238 238 233 230 231 235 242 251 259 266 272 276 279 281 283 286 289 293 296 298 299 301 303 307 314 320 324
241 229 232 241 240 234 232 235 239 238 237 238 239 240 242 240 237 233 234 238 243 250 257 263 269 272 275 278 280 283 286 290 294 295 296 298 301 304 311 318 322 325
235 227 238 247 242 237 237 238 239 241 242 243 241 240 238 236 235 235 238 244 250 256 261 265 270 272 275 278 281 284 287 291 293 294 296 299 302 307 314 320 323 325
238 236 244 246 240 241 243 242 241 242 243 242 238 235 234 234 236 238 244 250 256 260 264 268 270 273 276 279 282 285 287 289 291 293 297 300 304 310 316 320 323 325
238 238 243 244 243 245 245 242 240 240 242 241 237 235 236 238 242 246 251 255 259 262 266 269 272 275 278 280 282 284 286 288 290 293 297 301 306 313 318 321 323 325
233 233 237 242 244 244 244 243 241 242 244 243 242 242 244 247 251 254 256 258 260 264 268 272 275 277 279 280 282 284 284 286 289 294 298 303 309 314 317 320 322 324
230 228 230 235 239 241 245 245 246 248 250 250 250 250 252 255 258 260 260 260 263 268 272 274 276 277 279 281 282 283 283 285 289 295 300 305 310 314 316 319 321 322
232 228 228 231 235 240 244 245 249 253 256 258 259 258 259 261 262 263 262 263 267 273 275 275 276 277 279 281 283 282 282 284 289 295 300 305 310 313 315 318 320 321
242 237 233 233 236 240 244 246 249 254 258 262 263 264 265 265 266 266 265 266 271 275 276 276 276 276 278 281 283 282 282 284 289 294 299 305 309 312 315 317 318 319
248 246 243 241 241 243 246 249 250 253 257 259 262 264 266 267 268 268 268 270 273 275 277 277 276 277 279 282 282 281 281 283 287 293 298 304 308 312 314 316 317 318
247 249 250 250 249 248 250 251 252 254 256 258 260 262 264 267 269 270 271 272 273 275 276 277 277 278 280 281 281 280 280 282 287 292 298 303 308 311 314 315 316 317
247 250 253 255 255 255 255 254 255 256 258 260 261 263 265 267 269 271 272 273 275 276 277 278 279 279 280 280 279 279 280 282 287 292 298 303 307 311 312 313 315 315
249 253 255 257 259 260 260 259 258 259 259 261 263 265 267 268 270 272 274 276 279 280 280 281 281 280 280 279 278 278 280 283 287 292 297 302 306 309 311 312 313 313
252 254 256 260 262 263 263 262 261 260 261 262 264 267 268 270 271 273 276 278 280 280 281 282 281 281 280 278 277 278 280 283 287 291 295 300 305 307 309 310 311 311
253 255 258 262 263 264 263 262 261 261 262 263 265 266 268 270 272 274 276 278 279 281 282 281 281 280 278 277 276 277 280 283 285 288 293 299 304 305 307 308 308 309
255 258 261 263 264 264 263 262 263 263 263 263 264 265 267 269 271 273 275 277 280 283 282 279 279 278 277 275 274 275 279 283 284 287 293 298 302 304 305 306 306 308
257 259 262 263 263 264 264 264 264 263 263 263 264 265 267 268 270 272 274 277 281 283 281 278 278 279 277 272 270 273 280 283 283 287 294 298 301 302 303 304 305 307
259 261 262 263 263 264 264 264 264 262 262 263 264 265 266 267 270 272 275 279 282 284 282 278 278 280 275 270 269 274 279 281 283 289 295 297 299 300 301 303 304 305
261 262 263 263 263 262 263 264 264 263 263 264 265 266 267 269 272 275 279 283 284 285 284 281 281 281 275 270 272 277 279 281 285 291 295 296 298 300 300 301 302 304
261 262 262 262 261 262 263 263 264 263 263 265 267 267 268 271 275 279 282 284 284 285 285 283 284 282 274 271 275 278 278 283 288 292 294 296 298 299 298 299 300 303
Height
5797 5798 5799 5799 5799 5799 5800 5801 5802 5803 5803 5804 5804 5805 5806 5807 5807 5808 5808 5808 5809 5809 5810 5810 5811 5812 5813 5813 5813 5813 5813 5813 5813 5812 5811 5811 5810 5809 5807 5806 5804 5802
5795 5796 5796 5796 5796 5797 5798 5799 5800 5800 5801 5802 5802 5803 5804 5805 5805 5806 5806 5806 5807 5808 5808 5809 5810 5811 5811 5812 5812 5812 5812 5811 5811 5810 5810 5809 5808 5806 5805 5803 5802 5800
5793 5793 5794 5794 5794 5795 5797 5798 5798 5798 5799 5800 5800 5801 5802 5803 5803 5803 5804 5805 5806 5806 5807 5808 5809 5809 5810 5810 5810 5810 5810 5810 5809 5809 5808 5807 5805 5804 5803 5801 5800 5798
5792 5792 5793 5793 5792 5793 5795 5796 5796 5796 5797 5798 5799 5800 5800 5801 5801 5802 5802 5803 5804 5805 5806 5807 5807 5808 5808 5809 5809 5808 5808 5808 5807 5807 5805 5804 5803 5802 5800 5799 5797 5796
5791 5791 5791 5791 5791 5791 5792 5794 5794 5795 5796 5796 5797 5798 5799 5799 5800 5800 5801 5802 5803 5804 5804 5805 5806 5806 5807 5807 5807 5807 5807 5806 5805 5804 5803 5802 5801 5799 5798 5797 5795 5793
5790 5790 5790 5790 5791 5791 5791 5792 5793 5794 5795 5795 5796 5797 5797 5798 5799 5800 5800 5801 5802 5802 5803 5804 5804 5805 5805 5805 5805 5805 5805 5804 5803 5802 5801 5799 5798 5797 5796 5794 5792 5790
5789 5789 5789 5789 5790 5790 5791 5792 5793 5793 5793 5794 5795 5795 5796 5797 5798 5798 5799 5800 5801 5801 5802 5802 5803 5803 5804 5804 5803 5803 5802 5801 5800 5799 5798 5797 5796 5794 5793 5791 5789 5787
5788 5788 5789 5789 5789 5789 5790 5791 5792 5792 5792 5793 5793 5794 5795 5796 5796 5797 5798 5799 5799 5800 5801 5801 5801 5802 5802 5802 5801 5801 5800 5799 5798 5797 5795 5794 5793 5792 5790 5788 5786 5784
5787 5788 5788 5788 5788 5789 5789 5790 5791 5791 5792 5792 5792 5793 5794 5794 5795 5796 5797 5798 5798 5799 5799 5799 5800 5800 5800 5799 5799 5798 5797 5796 5795 5794 5793 5792 5790 5789 5787 5785 5783 5781
5786 5787 5787 5788 5788 5788 5789 5790 5790 5791 5791 5791 5792 5792 5793 5794 5795 5795 5796 5797 5797 5797 5798 5798 5798 5798 5797 5797 5796 5795 5794 5793 5792 5791 5790 5789 5788 5786 5784 5782 5780 5778
5785 5786 5786 5787 5787 5787 5788 5789 5790 5790 5790 5790 5791 5791 5792 5793 5793 5794 5795 5795 5795 5796 5796 5796 5796 5795 5795 5794 5793 5793 5792 5791 5790 5789 5787 5786 5785 5783 5781 5779 5777 5775
5784 5785 5785 5785 5786 5786 5787 5788 5789 5789 5789 5789 5790 5790 5791 5791 5792 5793 5793 5793 5794 5794 5794 5794 5793 5793 5792 5792 5791 5790 5789 5788 5787 5786 5785 5783 5782 5780 5778 5776 5774 5772
5783 5784 5784 5785 5785 5786 5787 5787 5788 5788 5788 5788 5789 5789 5790 5790 5791 5791 5792 5792 5792 5792 5792 5791 5791 5790 5790 5789 5788 5787 5786 5785 5784 5783 5782 5780 5779 5777 5776 5774 5772 5770
5782 5782 5783 5783 5784 5785 5785 5786 5786 5786 5787 5787 5787 5788 5788 5789 5789 5790 5790 5790 5790 5789 5789 5788 5788 5787 5787 5786 5785 5784 5783 5782 5781 5780 5779 5778 5776 5774 5773 5771 5769 5767
5779 5780 5781 5781 5782 5783 5783 5784 5784 5785 5785 5785 5785 5786 5786 5787 5787 5787 5788 5787 5787 5787 5786 5786 5785 5785 5784 5783 5782 5781 5780 5779 5779 5777 5776 5775 5773 5772 5770 5768 5766 5764
5777 5778 5778 5779 5780 5781 5781 5782 5782 5783 5783 5783 5784 5784 5784 5785 5785 5785 5785 5785 5785 5784 5784 5783 5783 5782 5781 5780 5779 5778 5777 5776 5776 5775 5773 5772 5770 5769 5767 5765 5763 5761
5776 5776 5777 5777 5778 5779 5779 5780 5780 5780 5781 5781 5781 5782 5782 5782 5782 5782 5782 5782 5782 5781 5781 5780 5780 5779 5778 5777 5776 5775 5774 5773 5773 5771 5770 5769 5767 5766 5764 5762 5760 5758
5774 5774 5775 5775 5776 5776 5777 5777 5778 5778 5778 5779 5779 5779 5780 5780 5780 5780 5780 5779 5779 5779 5778 5777 5777 5776 5775 5774 5773 5772 5771 5771 5770 5769 5767 5766 5764 5763 5761 5759 5757 5755
5772 5772 5772 5773 5773 5774 5774 5775 5775 5776 5776 5776 5776 5777 5777 5777 5777 5777 5776 5776 5776 5775 5775 5774 5773 5773 5772 5771 5770 5769 5769 5768 5767 5766 5764 5763 5761 5760 5758 5757 5755 5753
5769 5769 5770 5770 5771 5771 5772 5772 5773 5773 5773 5773 5774 5774 5774 5774 5774 5774 5773 5773 5772 5772 5771 5770 5770 5769 5769 5768 5767 5767 5766 5765 5764 5763 5761 5760 5758 5757 5755 5754 5752 5750
5766 5766 5767 5767 5768 5769 5769 5770 5770 5770 5771 5771 5771 5771 5771 5771 5771 5770 5770 5769 5769 5768 5767 5766 5765 5765 5765 5764 5764 5763 5763 5762 5761 5760 5758 5757 5755 5754 5752 5751 5749 5747
5762 5763 5764 5764 5765 5766 5766 5767 5767 5768 5768 5768 5768 5768 5768 5768 5767 5767 5766 5766 5765 5764 5763 5762 5761 5761 5760 5760 5760 5759 5759 5758 5757 5756 5755 5754 5752 5751 5749 5747 5746 5744
5759 5760 5760 5761 5762 5762 5763 5764 5765 5765 5765 5765 5765 5765 5764 5764 5764 5763 5762 5762 5761 5760 5760 5759 5758 5757 5756 5755 5755 5756 5756 5755 5754 5753 5752 5751 5749 5748 5746 5744 5743 5741
5755 5756 5756 5757 5758 5759 5760 5761 5761 5761 5761 5761 5761 5761 5760 5760 5760 5759 5759 5758 5757 5757 5756 5755 5754 5752 5750 5750 5751 5752 5752 5752 5751 5750 5749 5747 5746 5744 5743 5741 5739 5738
5752 5752 5753 5753 5754 5755 5757 5757 5757 5758 5757 5757 5757 5757 5756 5756 5756 5756 5755 5754 5754 5753 5752 5751 5750 5748 5747 5747 5749 5749 5749 5748 5748 5747 5746 5744 5743 5741 5739 5738 5736 5734
5748 5749 5749 5750 5751 5751 5752 5753 5753 5753 5753 5753 5753 5753 5752 5752 5752 5752 5751 5751 5750 5749 5748 5747 5746 5744 5744 5745 5746 5746 5746 5745 5744 5744 5742 5741 5739 5738 5736 5735 5733 5731